Retour au catalogue

NOAA 16 DEB

ActifPO
NORAD 41291·DEBRIS·🇺🇸 United States

Lancé Sep 21, 2000 depuis Vandenberg Space Force Base

Loading…

Prochains Passages (prochaines 24 heures)

TLE

FraisSource: Space-Track

Époque: Sep 14, 2026, 03:59 UTC

1 41291U 00055GT  26257.16665175  .00004940  00000-0  10506-2 0  9997
2 41291  98.9727 157.9579 0032842 130.6453 229.7608 14.59207055563685

Suivez NOAA 16 DEB en temps réel avec AllMySat

Download on the App Store